Miscellaneous Local Product
Issued by NWS Hastings, NE

Home | Current Version | Previous Version | Graphics & Text | Print | Product List | Glossary On
Versions: 1 2 3 4 5 6 7 8 9 10 11 12 13 14 15 16 17 18 19 20 21 22 23 24 25 26 27 28 29 30 31 32 33 34 35 36 37 38 39 40 41 42 43 44 45 46 47 48 49 50
612
AXUS43 KGID 242002
MISGRI

GID CWA HOURLY WEATHER ROUNDUP
NATIONAL WEATHER SERVICE HASTINGS NE
300 PM CDT WED MAY 24 2017

NOTE: "FAIR" INDICATES FEW OR NO CLOUDS BELOW 12,000 FEET WITH NO
SIGNIFICANT WEATHER AND/OR OBSTRUCTIONS TO VISIBILITY.

...SOUTH CENTRAL NEBRASKA...

CITY           SKY/WX    TMP DP  RH WIND       PRES   REMARKS
GRAND ISLAND   PTSUNNY   65  43  44 N5        29.73F
HASTINGS       MOSUNNY   61  42  49 CALM      29.74F
KEARNEY        MOSUNNY   63  41  45 S3        29.74F
ORD            MOSUNNY   63  40  42 VRB3      29.70F
YORK           SUNNY     63  41  45 CALM      29.73F
AURORA         PTSUNNY   62  41  45 CALM      29.72F
LEXINGTON      SUNNY     64  44  48 S9        29.71F
HOLDREGE       SUNNY     61  39  43 S3        29.72F
HEBRON         PTSUNNY   64  43  47 CALM      29.73F

...NEBRASKA PANHANDLE...

CITY           SKY/WX    TMP DP  RH WIND       PRES   REMARKS
CHADRON        SUNNY     76  47  35 S13G21    29.52F
ALLIANCE       SUNNY     74  45  35 S14G23    29.59F
SCOTTSBLUFF    SUNNY     79  43  27 E5        29.57F
SIDNEY         SUNNY     73  48  41 S13       29.65F

...WESTERN AND NORTH CENTRAL NEBRASKA...

CITY           SKY/WX    TMP DP  RH WIND       PRES   REMARKS
VALENTINE      SUNNY     69  35  28 S15G21    29.64F
AINSWORTH      SUNNY     64  43  47 S9        29.67F
ONEILL         PTSUNNY   61  42  50 SE8       29.71F
BROKEN BOW     SUNNY     63  42  46 VRB5G25   29.70F
IMPERIAL       SUNNY     69  42  37 S16G25    29.68F
NORTH PLATTE   SUNNY     68  43  40 S9        29.69F
MCCOOK         SUNNY     69  40  34 S9        29.71F

...EASTERN NEBRASKA...

CITY           SKY/WX    TMP DP  RH WIND       PRES   REMARKS
NORFOLK        PTSUNNY   63  42  46 E7        29.71F
SO SIOUX CITY  PTSUNNY   65  47  52 VRB5      29.71F
TEKAMAH        PTSUNNY   63  44  50 N6        29.71F
ALBION         MOSUNNY   64  41  42 CALM      29.71F
OMAHA EPPLEY   MOSUNNY   67  45  45 N5G16     29.70F
OFFUTT AFB     PTSUNNY   65  45  49 N8        29.70F
MILLARD        CLOUDY    65  47  52 N3        29.71F
LINCOLN        PTSUNNY   66  44  45 VRB5      29.72F
NEBRASKA CITY  MOSUNNY   66  38  36 N10G16    29.70F
BEATRICE       PTSUNNY   65  45  47 N9        29.72S
FALLS CITY     CLOUDY    65  46  50 N9        29.69S

...NORTHERN KANSAS...

CITY           SKY/WX    TMP DP  RH WIND       PRES   REMARKS
GOODLAND       SUNNY     71  44  37 S14       29.71F
HILL CITY      SUNNY     67  38  34 MISG      29.74F
NORTON         CLEAR     64  39  39 S7        29.72F
PHILLIPSBURG   SUNNY     64  39  39 SE7       29.74F
SMITH CENTER   MOSUNNY   63  45  51 SW3       29.75F
RUSSELL        MOSUNNY   63  44  50 S3        29.74F
CONCORDIA      PTSUNNY   62  44  51 W3        29.74F
SALINA         MOSUNNY   66  43  43 VRB3      29.76F
TOPEKA         CLOUDY    66  50  56 NE13      29.70S



USA.gov is the U.S. government's official web portal to all federal, state and local government web resources and services.